Theta_e
328 327 326 325 325 324 324 323 324 324 326 324 324 323 322 321 319 316 315 314 311 310 308 307 308 307 308 307 307 306 306 305 304 303 302 301 301 306 313 315 317 318 317 320 322 323 324 323 323 322 322 322 322 323 324 324 325 325 325 326 326 328 328 329 330 329 327 325 325 324 324 323 323 322 322 323 322 324 325 325 324 324 323 323 323
322 323 322 321 321 321 321 320 320 321 322 320 320 321 320 320 318 318 317 316 315 312 309 309 309 308 307 308 307 307 306 305 304 302 301 300 300 301 308 312 314 314 316 318 321 321 322 322 323 323 324 324 323 323 323 322 322 322 322 323 324 325 326 326 328 329 328 327 327 327 326 324 324 322 322 322 322 322 322 323 324 323 323 322 322
320 320 319 319 318 318 318 318 318 318 319 318 319 318 319 319 318 318 317 315 313 313 312 310 309 308 307 308 307 308 306 305 303 301 300 299 298 299 301 307 310 311 313 315 316 317 319 320 321 322 324 325 324 324 324 324 322 322 322 322 323 324 324 324 324 325 327 328 327 327 327 326 325 324 323 322 323 323 323 322 322 322 322 322 322
317 317 317 316 315 315 315 315 315 316 316 316 316 317 317 316 316 315 314 312 310 309 308 307 307 307 307 307 307 307 305 304 302 300 299 298 298 298 298 300 306 307 308 311 313 314 315 316 317 319 321 322 323 325 324 323 323 323 323 323 322 323 322 322 322 322 323 325 326 326 326 326 326 326 325 324 324 323 323 322 321 321 322 321 321
314 314 313 313 313 312 312 312 312 313 312 312 312 313 313 312 310 309 308 307 304 304 305 305 305 305 306 306 307 305 304 303 301 300 300 299 298 297 297 298 297 302 303 305 307 310 312 313 314 317 319 320 321 322 323 323 323 323 322 323 323 323 322 322 321 321 322 322 322 323 323 324 325 326 326 326 326 325 324 323 322 322 322 322 322
310 310 310 309 309 309 309 309 310 309 308 307 306 306 306 306 306 303 303 302 301 301 302 302 303 304 305 307 307 305 303 302 301 300 299 298 298 297 297 297 296 294 294 299 301 305 308 310 310 313 316 317 318 320 320 321 321 321 322 322 322 322 322 321 322 321 321 321 320 320 320 321 322 323 324 325 326 326 326 325 323 323 323 322 322
306 306 305 305 305 305 305 306 308 308 307 306 304 302 300 300 301 300 299 300 300 299 300 300 301 302 303 306 306 304 303 301 300 299 298 298 297 296 296 296 295 294 293 291 294 299 303 306 308 309 313 315 316 317 318 319 320 320 320 320 320 321 321 320 320 320 320 320 320 319 319 320 320 321 321 322 322 323 325 325 325 325 323 323 323
304 303 302 302 302 302 302 303 304 305 304 303 301 299 298 297 297 298 297 296 297 297 298 299 300 301 303 304 304 302 302 300 299 297 296 295 294 294 294 295 295 294 294 290 289 292 299 301 304 306 308 310 313 314 314 317 318 317 319 320 319 319 319 320 319 320 319 319 318 319 319 319 320 320 320 321 321 322 322 324 324 325 324 324 323
302 301 299 299 299 300 300 300 301 302 302 301 301 299 297 295 293 294 294 292 292 293 295 296 298 299 300 300 300 300 299 299 297 295 294 292 292 292 293 293 294 296 292 291 289 288 293 298 299 301 302 307 309 311 311 312 314 314 314 316 318 318 318 317 316 316 316 315 315 316 317 318 319 320 320 320 321 321 321 322 323 324 324 325 323
298 297 296 296 296 296 296 297 298 298 298 298 297 296 294 292 290 290 289 289 288 289 292 294 297 296 295 296 297 297 296 296 295 294 291 290 289 289 290 291 292 292 292 290 289 288 287 291 295 296 297 302 306 308 309 309 311 313 313 313 314 316 314 312 312 312 312 312 312 312 312 313 314 316 317 318 319 319 320 321 322 323 324 324 324
295 294 293 292 292 292 293 293 294 293 293 292 293 293 293 291 289 288 288 287 286 287 289 294 295 294 293 293 293 293 294 294 294 292 290 289 289 289 289 288 290 291 290 290 289 288 287 286 286 286 288 297 302 305 307 307 307 310 312 312 313 312 312 312 312 311 311 311 311 311 311 312 312 312 313 314 315 317 318 318 320 321 323 323 324
292 292 291 291 290 290 291 291 291 291 290 289 289 289 289 288 288 286 286 287 287 287 287 293 294 293 292 292 291 291 291 291 292 292 291 288 287 287 286 286 287 289 288 288 288 288 287 286 287 286 287 291 297 299 302 304 304 305 306 308 310 312 312 311 311 311 311 311 311 310 310 311 311 312 312 312 312 313 315 317 319 320 320 321 322
291 291 290 290 289 289 289 289 289 289 288 287 287 287 288 287 286 287 286 285 285 286 286 288 294 293 293 292 291 291 292 289 288 289 289 288 286 286 285 285 285 286 287 285 286 287 287 286 286 286 286 286 288 294 297 300 299 303 303 304 307 311 312 312 312 311 311 310 310 310 310 311 311 311 311 312 312 312 313 313 315 317 318 318 318
289 289 288 288 288 287 287 287 288 288 287 287 287 288 286 286 285 285 285 285 284 285 285 286 288 288 290 289 290 289 290 290 289 287 286 286 286 285 284 284 284 285 285 284 285 285 286 285 285 285 285 286 286 287 289 291 293 300 302 304 309 312 312 312 311 312 311 310 309 309 309 310 310 311 312 312 312 313 313 313 313 314 316 316 317
288 288 288 287 287 287 286 286 286 287 286 286 286 285 285 285 285 283 283 284 284 285 285 285 284 285 287 286 285 287 290 285 286 287 285 284 285 284 284 284 284 284 284 284 284 284 285 285 285 285 285 285 285 286 287 290 292 296 298 301 304 309 311 313 312 311 311 308 308 308 308 309 309 310 311 312 313 313 313 313 314 314 313 314 316
287 287 287 286 286 286 286 286 286 286 286 285 285 284 284 284 284 284 282 282 282 283 284 284 283 284 283 285 284 281 277 280 281 283 283 283 284 283 284 283 283 283 283 283 283 283 283 284 284 284 285 285 285 286 286 287 291 293 294 297 300 304 306 308 310 309 309 308 307 307 308 308 309 309 311 312 313 313 313 314 314 314 314 314 314
286 286 286 286 286 286 286 285 285 285 285 285 284 284 284 283 284 284 282 282 281 281 283 284 283 284 283 279 279 278 279 278 279 278 280 282 281 282 283 282 282 283 282 282 282 282 282 283 283 284 284 285 285 285 285 286 287 289 290 294 297 300 302 306 307 307 307 307 307 306 307 307 308 309 311 311 312 312 312 313 313 313 313 313 313
285 285 286 286 285 285 285 285 284 285 285 284 284 284 284 284 284 283 283 282 282 281 280 283 283 283 282 282 280 278 278 277 276 275 278 279 279 281 280 281 281 281 281 281 281 281 282 282 282 283 283 284 285 285 285 285 288 287 290 293 298 299 299 301 305 305 305 306 305 306 307 307 307 309 309 310 310 310 311 311 312 312 313 313 314
284 284 285 285 285 285 284 284 284 284 284 284 283 283 283 283 284 283 283 284 282 280 279 279 279 282 282 281 282 281 279 276 276 276 273 276 277 280 278 281 281 280 281 281 281 281 282 282 282 282 283 283 284 284 284 285 287 289 293 296 299 299 299 299 299 301 303 304 304 304 305 306 308 308 308 308 309 309 309 310 310 311 311 312 313
284 284 284 284 284 284 284 284 284 283 284 283 282 282 283 283 283 283 283 282 281 281 279 279 278 279 280 280 280 280 279 279 277 276 277 275 275 277 277 280 280 279 279 280 280 280 280 281 281 282 282 283 283 284 284 283 283 284 287 296 298 298 298 298 297 297 299 301 303 303 305 307 308 308 307 307 307 308 309 309 309 310 310 311 312
283 283 283 284 284 283 283 283 283 283 283 283 282 282 282 281 281 282 281 281 281 281 280 278 279 278 277 278 277 278 277 278 277 277 276 275 274 275 276 278 278 278 279 279 279 280 281 280 281 282 282 282 282 283 283 282 282 284 289 293 296 298 298 297 296 295 296 297 299 301 305 306 306 306 306 306 306 307 308 308 309 309 310 310 310
282 283 283 283 283 283 283 282 282 282 283 282 281 281 281 281 281 281 281 280 280 281 280 279 279 278 278 278 278 277 277 277 277 276 275 276 275 275 275 275 275 276 279 278 280 280 280 280 280 280 280 281 282 282 281 281 282 284 287 290 293 295 296 296 296 296 295 295 296 297 301 303 304 304 305 305 306 307 307 307 308 308 308 309 309
282 282 282 282 282 282 282 282 282 282 282 281 280 280 280 280 280 280 280 280 279 279 280 279 279 279 278 278 277 278 278 276 276 276 275 274 274 274 275 275 275 275 275 278 280 280 279 278 278 279 280 280 281 281 280 281 284 285 287 288 289 291 292 293 293 293 294 295 295 296 297 297 298 299 301 304 305 306 306 307 306 307 307 307 308
281 281 281 281 281 281 281 281 281 281 280 280 280 280 280 279 279 279 279 278 279 279 278 277 277 277 277 277 277 278 278 277 277 277 276 275 275 274 274 275 275 275 277 277 278 277 279 279 278 278 278 279 280 280 280 280 281 284 284 286 287 288 290 291 292 291 292 293 294 296 296 296 296 297 299 301 303 304 305 305 305 306 306 307 307
279 280 279 279 280 280 280 280 280 280 280 280 279 279 279 279 278 278 278 278 277 277 277 277 277 277 276 276 276 277 277 277 277 277 276 276 276 273 274 275 273 274 275 276 276 278 278 276 277 278 277 279 280 279 279 280 280 283 285 284 285 286 287 288 289 290 291 292 293 294 294 294 295 297 298 299 301 302 303 304 304 305 305 305 306
279 279 279 280 280 280 280 279 279 279 279 279 279 278 278 278 277 277 277 277 277 277 277 276 276 276 276 276 276 276 276 277 276 277 276 275 274 274 274 274 274 274 275 274 274 276 274 275 277 276 277 277 277 278 278 279 279 283 284 282 281 283 284 286 287 289 292 292 292 292 292 292 294 295 295 298 299 299 301 302 303 304 304 304 305
280 280 280 279 279 279 279 278 278 278 278 278 279 278 277 277 277 277 277 276 276 277 276 276 277 276 276 276 276 276 275 277 276 276 276 276 276 275 274 272 272 273 272 274 274 274 275 275 276 277 276 277 277 278 278 278 280 283 282 279 277 281 283 285 288 291 291 291 291 291 291 291 292 293 294 295 297 298 299 300 302 302 303 303 302
280 280 279 279 278 278 278 277 277 277 277 277 277 277 276 276 275 276 276 278 276 276 276 275 275 275 275 275 275 275 275 275 276 275 275 276 276 275 275 273 272 269 272 271 272 272 274 273 274 275 275 276 277 277 280 279 278 282 281 277 276 277 281 285 288 290 290 289 289 290 290 290 291 292 292 293 293 294 295 295 296 296 296 296 297
279 279 278 278 278 277 277 276 276 276 276 276 276 276 276 275 275 275 275 275 275 275 275 275 275 275 275 275 275 275 275 275 275 276 275 275 275 274 274 273 274 271 269 270 272 271 272 275 274 274 275 276 276 277 277 276 279 279 277 276 276 275 279 284 287 288 288 289 289 288 289 289 290 290 290 291 292 292 293 293 293 293 294 295 296
280 279 278 278 277 278 276 276 276 276 275 275 275 275 275 275 275 275 274 274 274 275 275 275 275 275 275 274 274 274 275 274 275 275 274 274 273 274 274 274 274 271 271 270 270 273 272 274 274 273 275 275 276 276 276 275 279 278 276 275 275 275 281 283 283 285 285 287 288 287 289 289 289 289 289 290 290 291 292 292 292 293 294 295 296
279 278 277 277 276 276 276 275 275 275 275 275 275 275 275 274 275 274 274 274 274 273 274 275 275 274 274 273 274 273 274 274 274 274 274 274 274 274 273 274 274 273 272 271 269 272 273 272 273 274 274 274 275 275 275 275 277 277 275 275 275 278 280 278 280 282 284 285 285 286 287 288 288 289 289 288 289 290 290 291 291 291 292 293 294
277 277 276 276 276 275 275 275 275 274 274 274 274 274 274 274 274 273 273 273 273 273 273 274 275 274 273 273 273 273 273 273 273 273 273 273 273 274 273 274 273 273 273 272 270 270 273 272 273 273 274 274 274 273 273 274 275 277 274 275 275 278 276 275 278 280 281 283 284 286 287 287 288 288 287 287 288 288 289 289 290 290 290 291 292
277 276 276 276 275 275 275 275 274 274 274 273 274 273 273 273 273 273 272 273 272 273 273 273 273 273 273 272 272 272 273 272 273 273 273 272 272 273 274 273 273 272 271 270 269 269 271 273 273 273 273 273 272 273 272 273 273 273 275 274 275 274 274 274 275 278 280 281 283 285 285 286 287 287 287 287 287 287 288 289 289 289 289 290 290
276 276 275 275 275 275 274 274 274 273 273 273 273 272 272 272 272 273 272 272 272 272 272 272 272 273 272 272 272 272 273 272 272 272 272 272 272 271 271 272 271 272 272 270 269 269 268 271 271 272 272 273 271 273 272 272 272 273 273 273 274 274 274 274 274 274 279 281 283 284 285 286 286 287 286 286 287 288 288 288 288 288 288 289 289
276 276 276 275 275 274 274 273 273 273 273 272 272 272 272 271 271 271 272 271 272 271 271 271 271 272 271 271 271 272 273 271 272 272 272 271 272 271 271 271 270 271 271 271 270 268 268 269 271 270 271 272 271 271 272 272 273 273 272 272 273 274 275 274 274 275 278 281 283 284 284 285 285 285 285 286 286 286 287 287 287 287 287 287 287
275 276 276 276 275 274 273 273 272 272 272 272 272 272 271 271 271 271 271 271 271 271 271 271 271 271 271 271 271 271 271 271 271 271 271 271 271 271 270 271 271 270 271 271 271 270 269 268 269 270 271 271 271 272 272 272 272 272 272 273 273 273 274 274 274 274 277 281 282 283 283 284 284 284 285 285 285 286 286 286 286 286 286 286 286
276 276 276 275 274 274 274 273 272 272 272 271 271 271 271 271 271 271 271 271 271 271 271 271 274 271 271 271 271 271 271 270 270 271 271 270 270 270 270 271 271 271 271 271 270 270 269 268 269 271 272 271 272 271 272 271 271 272 272 272 272 273 273 274 274 275 278 280 280 281 281 282 283 284 284 285 285 285 286 286 286 286 285 285 284
275 276 275 274 274 274 273 272 272 271 271 271 271 270 270 271 271 272 271 271 271 271 271 271 271 271 271 271 271 271 270 270 269 270 270 270 270 270 270 271 271 271 271 271 271 271 271 270 270 270 271 270 271 271 271 272 271 271 271 272 273 273 273 273 274 275 276 276 275 276 278 280 281 282 284 284 284 285 285 285 285 284 283 283 283
275 275 274 274 274 273 273 272 271 271 270 270 269 269 270 270 271 271 270 270 270 270 271 270 271 271 271 271 271 271 270 270 270 269 269 270 270 270 271 271 271 271 271 272 272 271 271 270 270 271 270 271 271 270 272 273 272 272 271 271 271 273 274 274 273 275 275 276 278 280 279 280 281 281 282 283 284 284 284 284 284 283 282 282 283
275 274 274 274 273 273 272 272 271 270 270 269 269 270 270 270 270 270 270 269 269 270 270 270 270 270 270 270 271 271 271 270 270 270 270 270 271 270 271 270 271 271 270 271 271 271 271 270 270 270 270 270 271 272 272 272 271 271 273 272 270 271 272 274 274 274 275 275 275 275 278 278 279 279 281 282 282 283 282 282 281 281 281 281 283
275 274 274 274 272 272 271 270 269 270 270 270 269 270 270 270 270 271 270 270 270 269 270 269 269 269 269 269 270 270 272 274 276 276 275 275 272 268 269 270 269 270 270 270 271 271 270 270 269 271 270 270 271 270 270 270 270 270 272 273 272 272 273 273 274 275 276 275 275 275 275 276 277 277 278 277 277 279 278 279 279 279 280 282 283
274 274 273 273 272 272 271 271 270 270 270 270 273 275 274 271 270 271 272 271 271 271 271 271 270 270 269 269 270 274 274 274 274 274 275 276 276 274 272 271 269 270 271 270 269 269 270 269 269 270 269 269 270 270 271 272 273 273 273 273 271 272 273 273 274 275 277 276 275 274 275 277 277 276 276 275 276 276 275 275 275 278 280 283 283
273 272 272 272 271 271 271 270 270 270 270 270 275 277 277 276 273 272 272 271 272 272 271 271 270 271 270 269 268 271 272 272 271 273 274 274 274 275 275 275 275 273 270 269 270 271 270 270 271 270 270 270 271 272 272 273 273 273 272 273 272 272 271 270 269 273 277 276 274 273 273 275 275 274 274 274 274 275 275 275 279 281 281 282 283
273 272 272 272 271 271 271 270 270 270 270 274 277 278 279 279 277 273 273 272 272 272 271 271 271 271 270 270 269 269 269 270 270 270 271 273 273 274 275 275 275 276 277 275 273 272 272 271 271 271 271 271 272 273 273 273 272 272 273 273 273 272 271 270 270 269 273 274 272 270 270 273 274 273 273 274 274 275 275 278 281 281 282 282 283
272 271 272 272 271 271 270 270 269 269 268 275 277 278 279 279 280 277 274 273 272 271 271 271 271 270 269 269 268 269 268 271 271 269 268 268 271 274 274 275 276 276 277 277 278 275 275 273 272 272 273 272 272 272 273 273 274 272 272 271 271 270 270 269 269 269 271 273 271 269 269 271 273 272 272 273 274 275 275 278 280 281 282 282 282
272 272 271 271 271 270 270 269 269 268 268 274 277 278 279 279 280 278 274 273 272 271 271 271 271 271 269 267 267 267 267 268 268 268 269 268 269 270 271 271 272 273 276 277 278 278 277 275 273 272 273 273 272 273 274 274 272 270 270 269 269 269 268 268 269 270 271 273 270 269 268 270 273 272 271 273 275 275 274 277 280 281 281 282 281
271 271 271 270 270 270 269 268 267 267 268 274 277 277 278 279 279 278 274 273 272 271 271 271 270 268 268 268 267 267 267 268 268 270 270 270 271 271 272 272 273 273 274 274 274 275 275 274 273 273 273 274 273 273 272 273 272 271 270 269 270 269 269 269 269 270 271 272 272 271 267 271 273 272 272 273 274 274 275 277 279 280 280 281 281
271 271 270 270 270 269 269 268 267 266 266 274 276 277 278 279 279 276 274 273 271 270 270 270 268 268 268 268 268 267 268 268 271 274 275 274 274 273 272 273 274 275 275 276 277 277 275 274 274 273 273 273 275 273 272 272 271 271 271 271 270 268 267 266 266 268 269 272 272 270 268 269 272 270 270 272 273 272 274 274 277 279 279 280 280
271 270 270 270 269 269 268 267 267 267 265 271 276 277 277 279 278 273 273 271 270 268 268 268 268 268 269 269 268 268 268 268 272 275 276 277 275 274 273 273 273 273 272 273 274 276 275 275 274 274 274 274 274 274 273 273 272 271 269 267 266 267 265 264 264 265 266 268 269 270 268 266 269 269 268 270 271 271 271 272 272 276 278 279 279
271 270 270 269 268 268 267 266 266 265 264 268 275 276 277 278 276 272 271 269 268 267 267 269 269 269 269 272 271 270 269 269 273 275 277 277 274 274 273 272 270 269 269 270 269 270 272 271 271 271 270 271 271 271 271 272 272 271 266 264 265 265 263 263 262 263 264 265 267 269 266 266 268 269 267 268 269 269 270 271 272 273 276 276 278
271 270 269 268 267 266 266 265 267 266 263 266 274 275 276 277 276 272 271 268 267 267 267 267 268 268 268 270 272 272 272 272 276 277 278 277 274 274 272 269 269 267 268 268 267 267 266 264 264 264 264 266 266 265 266 270 271 269 267 266 265 263 262 262 262 262 261 263 267 269 265 265 266 267 267 265 264 268 270 271 271 272 273 273 273
Wind_Speed
5 5 5 6 5 5 5 4 2 1 2 2 2 4 4 4 3 2 3 5 4 4 4 4 5 5 5 5 5 5 6 7 7 8 8 7 8 11 16 16 18 19 20 21 21 21 20 20 19 19 18 18 17 17 17 17 18 18 19 18 18 17 15 13 17 12 7 5 6 6 6 7 7 7 8 9 9 9 8 9 10 10 10 10 10
6 5 6 6 6 6 6 5 5 6 5 6 4 5 5 4 4 4 5 5 6 5 6 6 6 5 5 5 5 6 7 7 8 8 7 7 8 9 18 17 19 22 21 21 21 22 22 22 21 21 20 19 18 18 18 18 17 17 17 18 18 18 18 18 14 14 12 11 12 10 8 8 8 8 7 8 9 10 10 10 11 11 11 10 10
7 7 6 7 7 7 7 6 7 6 5 6 5 6 5 4 4 5 5 6 6 5 6 6 5 6 5 6 5 6 7 7 8 8 8 7 7 7 10 18 19 21 22 21 22 21 22 21 21 21 21 21 20 20 19 19 18 17 17 17 17 17 18 18 19 18 13 13 14 14 12 10 9 9 9 8 9 10 12 12 11 12 12 13 12
7 7 7 7 7 7 7 7 7 6 6 6 6 6 6 4 7 7 6 5 5 6 5 5 6 6 6 6 5 7 7 8 8 8 8 8 7 7 8 9 14 19 20 22 22 22 21 22 21 21 20 20 20 20 20 20 19 18 19 18 18 17 17 17 18 18 18 18 16 15 15 14 15 14 12 10 10 10 10 12 13 12 13 13 13
7 8 7 7 7 8 8 7 6 6 6 7 8 6 6 7 8 7 7 6 7 6 5 6 7 6 5 6 6 7 7 8 8 8 9 8 8 7 7 8 8 12 17 20 21 22 22 22 22 22 21 21 20 20 20 19 18 19 19 19 18 18 18 18 18 18 18 19 19 19 18 18 16 15 14 15 16 14 12 12 13 13 14 14 14
7 7 7 8 8 8 7 7 6 7 7 7 8 6 7 8 6 7 7 7 7 6 6 7 5 5 6 4 6 7 8 8 8 8 8 8 7 8 7 7 7 8 9 15 19 21 22 22 22 22 22 21 21 20 20 19 18 19 19 19 20 19 19 19 18 18 18 19 19 19 19 19 19 19 19 18 16 17 18 17 14 12 13 14 14
7 7 7 7 8 8 8 6 6 6 8 7 8 7 8 8 6 6 6 6 5 6 6 5 6 7 5 5 7 7 8 8 8 8 8 8 8 8 7 7 7 7 7 8 11 17 20 21 22 22 22 22 22 21 22 20 19 19 19 19 19 19 19 19 18 18 18 18 18 19 19 19 19 19 19 19 20 21 18 16 18 19 14 13 14
8 7 8 7 8 8 6 5 6 7 7 6 7 8 7 7 8 6 6 7 6 7 5 6 6 6 6 6 7 7 8 8 9 9 7 8 8 7 7 7 7 7 7 7 8 11 17 19 20 21 22 22 22 22 22 22 21 21 20 19 18 18 18 18 19 19 20 20 20 20 20 20 19 19 19 19 19 19 20 20 19 17 20 16 14
8 7 8 8 8 8 6 6 6 7 8 7 8 6 7 7 8 8 6 6 6 6 6 5 6 7 7 9 8 9 8 8 8 7 7 9 8 7 7 7 7 7 7 7 7 8 11 17 18 18 19 20 22 22 22 23 22 21 21 21 21 20 20 20 20 20 20 20 21 21 21 21 22 21 21 21 20 20 20 21 21 21 18 20 16
8 7 8 8 8 7 7 7 7 8 8 8 8 6 6 7 9 8 7 6 7 6 6 5 6 8 9 9 9 9 8 8 8 8 9 9 8 8 6 7 7 7 8 7 7 8 8 12 16 16 17 19 21 22 22 23 23 22 21 21 21 21 20 19 19 19 20 20 20 20 20 20 20 20 21 21 21 21 21 22 22 22 22 18 18
8 7 9 8 8 8 7 6 6 7 8 8 8 7 8 7 8 6 7 8 6 5 4 6 8 8 9 9 9 9 7 7 8 8 8 7 8 7 7 8 7 7 8 8 7 7 8 8 8 8 10 17 19 20 21 23 23 23 22 21 21 20 19 19 19 20 20 21 21 21 21 21 20 20 19 19 20 21 21 21 22 23 22 23 21
8 8 9 8 8 8 8 7 6 7 9 10 7 7 7 8 7 5 6 8 9 6 5 5 8 9 9 8 8 8 9 8 8 7 7 7 7 7 8 7 8 7 7 7 8 8 8 8 8 7 7 11 17 18 18 20 20 22 23 23 22 21 20 19 19 19 20 21 22 22 23 23 22 22 21 20 20 19 20 20 21 21 22 23 23
8 8 9 9 8 7 9 8 7 9 9 8 6 6 5 5 6 7 10 12 11 8 6 3 7 7 6 6 7 5 8 9 9 8 7 6 6 8 7 8 8 8 7 7 8 8 8 8 8 7 8 7 9 14 16 17 18 20 23 23 22 21 20 20 19 19 20 21 22 23 24 24 23 23 22 22 21 20 20 19 20 20 21 21 22
8 8 9 9 9 8 8 7 7 8 8 7 7 7 7 7 4 10 7 11 8 7 8 2 5 4 5 3 3 2 4 8 9 6 7 7 7 8 8 8 9 7 8 8 8 8 8 8 8 8 8 7 7 7 8 9 11 18 22 24 23 21 20 19 20 21 22 22 23 24 24 25 25 24 23 23 22 21 20 20 20 20 20 20 21
8 8 9 8 9 9 8 7 7 6 9 9 8 9 7 7 7 6 7 5 7 7 10 6 3 1 1 4 2 1 2 5 4 5 5 6 6 8 8 9 9 7 7 8 8 9 8 8 8 9 9 8 8 7 7 8 11 16 19 21 22 22 21 20 21 22 22 23 24 25 25 25 25 24 24 24 23 22 22 21 21 20 20 20 20
7 8 8 8 8 9 7 8 8 7 8 9 9 8 7 7 6 5 4 9 6 8 7 7 5 1 2 2 1 2 2 4 5 4 2 6 8 7 7 8 8 8 7 9 8 8 8 7 9 8 9 9 8 8 8 8 12 11 15 15 18 22 22 21 22 23 23 24 25 25 25 25 24 24 24 24 24 23 23 22 22 22 22 21 21
8 8 8 9 7 8 9 8 8 7 7 9 8 7 5 5 5 7 6 8 7 5 8 9 10 6 5 3 2 4 0 3 4 2 3 4 5 6 7 8 8 7 6 7 7 7 7 8 8 8 9 9 9 8 8 9 8 8 11 15 18 21 22 22 23 24 25 26 26 25 25 25 25 24 24 23 23 24 24 24 23 23 23 23 23
7 7 8 7 9 8 8 9 8 7 7 7 6 7 8 8 6 5 7 5 8 6 5 6 8 10 8 4 2 3 0 2 3 3 6 1 3 4 6 8 6 8 7 7 8 8 6 7 6 8 8 8 8 8 8 8 8 8 9 14 23 21 21 23 24 25 26 26 25 25 25 25 25 24 24 24 24 24 24 25 24 24 23 23 23
7 7 7 7 8 8 8 8 8 7 6 8 9 7 6 5 5 7 5 4 5 7 5 1 3 8 7 7 9 6 2 3 1 1 4 5 4 5 4 9 8 7 8 9 9 9 9 7 7 7 7 6 8 7 7 8 10 11 19 23 22 23 22 23 23 24 25 25 25 25 25 25 25 24 24 24 25 25 25 25 24 24 24 23 23
7 7 7 7 8 8 8 8 9 7 7 7 7 5 6 6 6 6 6 6 6 8 6 5 6 2 3 6 5 5 5 6 2 2 1 3 6 4 2 7 8 5 4 7 7 8 8 8 8 8 7 7 7 8 7 8 8 10 11 25 25 24 24 24 23 23 24 25 26 25 25 25 25 25 25 25 26 26 26 25 24 24 24 23 23
7 7 7 8 8 8 8 8 8 7 6 7 6 6 7 7 7 8 8 7 6 4 8 5 6 3 2 4 4 5 4 4 4 4 3 1 5 4 8 3 2 4 6 5 6 7 6 6 6 6 6 7 7 7 7 8 8 9 13 24 26 27 28 27 25 24 24 24 24 25 25 25 26 26 26 27 27 27 26 25 24 24 24 24 23
7 7 8 7 7 7 7 7 7 6 6 7 7 7 7 8 7 6 7 8 5 7 7 6 6 5 5 3 6 3 5 5 6 5 2 2 1 6 5 8 11 7 7 7 9 8 5 5 6 5 5 5 6 7 7 8 9 10 15 24 23 23 23 24 25 25 24 24 24 25 25 26 27 27 28 28 27 26 26 25 25 24 24 24 24
6 7 7 6 6 5 6 6 6 6 7 7 7 7 6 6 6 7 8 8 7 7 7 6 6 7 6 7 6 6 3 2 1 2 2 1 3 4 4 3 5 8 4 5 9 9 6 4 3 5 5 5 5 6 6 8 9 13 21 21 21 21 22 22 23 24 25 26 26 26 26 27 27 28 28 27 26 26 25 25 25 25 24 24 24
6 6 6 4 5 6 6 6 7 7 8 6 6 6 5 5 6 7 6 6 5 7 6 7 6 6 5 5 6 5 5 5 2 3 4 1 1 4 5 4 4 4 6 6 6 5 7 6 4 3 4 5 6 7 8 8 8 18 15 15 19 22 23 24 24 24 24 25 26 26 27 27 26 26 26 26 26 26 26 25 25 25 24 24 24
5 6 4 4 5 7 7 7 6 6 5 6 5 5 5 6 7 6 6 6 6 6 7 6 6 6 6 4 5 6 6 3 4 4 2 2 3 4 2 1 4 7 4 3 3 6 4 2 3 5 4 5 5 6 7 9 9 16 19 9 20 19 21 23 24 25 24 24 24 26 26 26 26 26 26 26 26 26 26 26 25 25 25 25 25
6 6 5 5 6 6 6 6 5 5 5 5 5 4 5 6 6 7 6 5 5 6 7 6 6 5 4 6 6 6 5 4 4 5 4 4 4 3 5 3 2 6 4 2 2 4 4 2 5 3 6 6 6 7 8 8 8 16 20 13 14 20 22 23 23 23 24 24 24 24 25 26 26 26 26 26 26 26 25 26 25 25 25 25 25
7 6 5 7 6 6 6 6 5 4 4 5 5 5 5 6 6 6 6 5 6 6 6 6 7 6 5 5 6 5 5 4 5 5 5 4 3 1 4 7 6 2 4 3 3 3 6 3 2 4 4 6 9 9 9 9 10 18 17 10 10 21 23 24 23 24 23 24 24 25 25 24 25 26 25 25 26 26 26 26 26 27 27 26 26
6 6 5 6 7 7 5 5 4 5 5 5 5 5 5 6 6 5 6 3 6 6 5 5 6 5 5 3 6 4 3 4 4 5 5 4 4 3 3 3 4 7 6 5 2 4 2 1 4 2 5 7 7 7 9 11 8 18 14 9 10 11 20 24 24 24 24 24 24 24 25 24 23 24 25 26 26 26 27 27 27 27 27 27 27
7 5 7 6 6 6 6 5 5 5 5 5 5 5 4 5 6 6 6 4 6 5 4 5 4 4 5 4 5 5 4 3 4 5 5 4 3 3 2 2 1 1 4 6 9 2 3 2 1 3 5 9 7 6 8 7 11 15 10 10 10 9 17 23 24 24 24 24 24 24 23 24 24 24 24 25 25 25 25 26 26 26 27 27 27
6 6 6 7 5 5 6 5 5 5 5 5 5 5 5 6 5 5 4 4 5 5 4 5 4 4 4 5 4 5 3 4 4 3 4 3 4 3 2 1 0 2 2 5 9 4 5 2 2 3 7 6 7 8 6 6 13 15 11 11 10 10 20 22 23 24 24 25 24 24 24 23 23 24 24 24 24 25 25 25 25 26 26 26 26
7 7 7 6 6 5 5 6 5 5 4 4 4 5 5 6 5 5 4 4 5 5 4 4 3 5 4 5 4 4 3 3 3 3 3 3 3 2 2 2 2 0 1 3 5 5 4 5 3 2 6 5 6 8 6 6 10 14 11 10 10 18 23 16 20 22 23 24 24 24 24 24 24 23 24 24 25 24 24 25 25 26 26 26 26
6 6 6 6 6 6 5 6 5 4 5 4 5 5 5 5 5 5 4 4 5 5 4 4 4 4 4 4 3 3 2 3 3 3 3 3 2 3 2 2 2 1 0 2 5 14 9 5 8 5 4 8 7 7 9 6 8 15 9 9 11 18 11 9 15 20 22 24 24 24 24 24 24 24 24 24 24 24 24 24 25 25 25 26 25
7 7 6 6 5 6 6 6 5 4 5 5 4 5 5 6 5 4 3 4 5 4 4 5 4 4 3 3 2 2 1 3 2 2 2 2 2 2 1 2 2 1 2 1 6 11 14 2 3 7 7 8 7 5 9 9 9 10 10 8 10 9 10 9 9 15 20 23 23 24 24 24 24 24 24 24 23 24 24 24 24 24 25 25 25
6 7 6 5 5 6 6 6 5 5 4 5 4 4 6 6 4 3 4 4 4 4 4 4 3 3 2 2 2 2 1 2 1 1 0 1 1 1 1 2 1 1 2 2 4 7 14 13 7 6 6 6 10 5 7 11 12 10 11 9 9 8 9 9 9 9 19 22 23 24 24 24 24 24 24 24 23 23 23 23 24 25 25 26 26
5 6 7 7 7 6 6 6 5 5 5 5 4 5 5 5 5 4 4 4 4 3 3 3 2 1 2 1 1 1 1 1 1 0 0 0 0 0 0 1 0 1 2 3 4 7 10 13 8 9 9 8 7 9 9 8 10 9 11 10 9 9 8 9 9 8 16 22 23 24 25 25 24 24 24 24 23 23 23 24 25 26 26 26 26
8 6 7 7 7 7 7 6 5 6 5 5 5 5 5 5 5 5 4 4 3 3 3 2 2 1 0 0 1 0 0 1 1 1 1 0 1 1 1 2 2 2 3 3 5 6 8 11 10 7 9 10 9 6 6 9 9 10 9 10 9 8 9 8 8 8 12 21 23 24 25 24 25 24 24 23 23 23 24 25 26 26 26 26 25
7 6 6 5 6 7 7 7 6 5 6 6 6 5 4 4 5 5 4 3 3 3 2 1 2 1 0 0 1 1 1 1 2 2 2 2 2 2 3 3 3 4 3 4 5 5 7 9 11 7 7 8 8 8 7 9 11 10 8 9 9 9 9 8 8 8 15 21 21 23 23 24 24 24 23 23 23 23 24 26 27 26 26 26 25
8 6 7 6 6 6 4 5 6 6 5 6 6 6 5 5 5 4 3 3 2 2 1 1 0 0 0 1 1 1 1 1 3 3 2 3 3 3 3 3 3 3 4 4 4 5 7 10 11 13 8 8 11 8 6 9 12 14 12 9 8 7 8 9 9 8 7 8 8 10 14 16 18 23 24 23 23 24 25 27 27 27 26 25 25
9 8 7 7 4 4 4 5 5 5 6 5 6 5 5 5 4 4 3 3 2 1 0 0 0 0 0 1 1 1 1 2 3 3 3 3 3 4 4 3 3 2 3 4 6 7 8 10 10 10 12 10 11 15 12 9 11 10 13 13 10 7 8 10 12 9 8 10 12 18 17 17 19 18 20 22 23 25 26 26 26 26 24 24 24
8 8 9 7 6 4 4 3 4 4 5 5 5 5 4 5 4 3 3 3 2 0 0 0 0 0 1 1 1 2 2 3 3 4 4 4 3 3 3 2 3 3 3 4 6 7 8 10 10 11 11 13 9 10 10 10 10 10 7 12 18 15 12 11 11 11 12 11 11 9 10 11 12 15 18 20 21 24 25 24 23 23 24 23 23
7 7 7 6 6 6 4 4 4 4 5 5 5 5 5 4 4 4 3 3 1 1 0 1 1 0 1 2 2 2 3 6 8 7 7 7 3 3 4 2 3 3 4 4 4 5 6 7 9 10 11 10 9 11 12 11 11 12 12 11 13 12 11 12 11 8 10 12 11 9 8 7 9 9 9 9 9 14 14 19 18 20 21 22 24
7 7 7 7 7 8 8 6 5 4 4 4 6 10 8 5 5 4 4 2 2 1 1 2 2 1 2 2 2 5 6 7 8 9 9 9 9 6 4 3 3 3 4 4 5 5 7 8 8 9 9 9 9 11 13 12 11 11 14 12 12 13 15 12 12 9 8 9 10 11 9 7 9 11 9 10 8 9 8 8 9 15 21 24 24
9 8 8 9 8 8 8 7 7 5 4 4 9 10 11 12 7 5 4 3 3 3 3 3 3 2 2 2 2 2 4 6 5 9 8 9 9 10 10 10 8 6 4 6 7 7 7 8 7 7 8 10 11 10 10 12 12 12 15 14 13 14 10 13 12 10 5 10 13 15 15 9 9 10 9 9 9 8 8 8 18 23 24 24 24
6 6 8 8 7 7 6 6 6 6 5 7 11 11 12 13 10 6 4 3 4 4 4 4 3 3 2 2 1 1 2 3 4 3 5 9 10 9 9 9 9 10 10 8 8 7 8 9 10 10 9 10 12 11 12 13 14 15 14 13 14 13 15 12 13 13 12 13 15 14 15 8 7 8 10 9 8 8 9 16 22 23 24 24 23
6 6 7 7 7 6 6 7 7 6 5 9 11 12 12 12 11 8 5 5 4 4 4 4 4 3 2 1 2 2 2 7 5 4 4 4 9 11 11 11 11 12 12 14 15 11 9 9 11 11 10 11 14 12 13 16 17 15 14 12 11 12 12 13 12 15 15 12 13 11 12 9 8 8 10 10 9 8 8 13 22 23 23 23 22
8 6 7 8 7 7 7 7 6 5 6 8 11 11 11 11 11 8 5 5 4 5 5 4 4 2 1 2 2 4 3 3 4 5 5 6 6 7 7 7 7 10 15 18 18 18 15 11 11 12 13 12 13 14 14 15 15 15 13 13 13 14 12 14 16 16 14 9 11 11 11 8 7 11 12 10 7 8 9 16 22 21 21 22 21
10 10 10 10 8 7 6 6 5 6 5 10 11 11 10 10 11 9 5 5 5 4 4 4 2 2 3 3 3 4 4 4 6 6 7 7 7 7 7 8 7 7 8 7 6 5 5 6 9 10 11 11 12 15 15 14 14 13 12 14 15 13 13 13 12 11 11 9 11 9 10 10 11 11 11 11 10 11 10 12 18 20 21 21 21
6 4 4 5 8 8 7 6 6 7 5 11 12 12 11 10 12 5 5 5 4 3 4 4 3 3 3 4 4 4 4 5 9 12 10 8 7 7 8 7 6 4 2 5 12 15 13 10 8 9 10 13 17 15 15 13 12 11 11 10 8 9 10 10 10 9 10 9 10 12 10 10 10 13 13 12 12 13 13 11 16 21 21 22 23
11 9 9 9 8 8 8 8 8 6 5 9 12 12 11 12 9 4 5 4 3 3 3 3 3 3 4 4 4 5 5 5 10 12 12 11 6 7 5 6 5 2 4 4 9 12 10 11 13 15 17 17 17 18 18 19 14 13 9 9 8 9 10 12 11 10 11 12 11 10 10 12 10 12 13 12 12 14 13 11 10 15 20 24 22
11 11 9 7 7 8 9 10 9 8 7 8 12 11 12 13 9 6 5 5 4 3 3 4 3 4 5 10 8 6 6 6 12 12 12 9 4 4 7 4 4 5 5 4 2 3 7 10 12 13 13 14 15 16 16 17 17 13 8 9 10 9 9 9 11 11 13 10 7 11 11 10 13 12 13 11 12 9 11 9 10 12 19 17 20
9 6 7 8 7 6 7 7 7 8 6 7 11 12 13 13 10 5 6 5 5 4 4 4 3 4 5 7 12 10 8 10 13 12 11 7 4 3 2 4 5 6 5 2 2 4 4 5 5 6 6 9 8 7 9 16 15 12 8 8 7 6 8 8 10 11 12 7 8 14 12 11 13 12 12 12 11 9 6 8 11 11 9 9 11
Wind_Direction
73 67 73 62 59 63 60 51 41 86 119 43 100 113 106 102 94 98 83 71 57 61 56 40 37 35 53 50 50 51 49 52 48 48 45 44 40 34 35 31 35 36 33 30 29 28 28 26 24 22 21 21 19 19 20 19 19 16 12 9 6 4 7 4 7 332 271 288 302 305 313 323 329 335 340 343 340 340 333 331 332 335 338 342 342
68 64 70 65 58 48 50 41 51 26 45 59 34 63 67 68 73 73 69 60 52 28 50 41 36 32 29 45 46 56 57 56 53 54 52 46 42 39 39 38 39 40 38 36 35 33 30 28 24 22 20 19 19 21 21 20 19 17 15 12 8 8 7 12 9 9 353 326 318 310 309 315 322 322 327 328 328 332 326 322 325 327 328 328 330
71 68 68 68 59 55 46 41 43 37 41 60 43 53 60 56 59 57 55 62 58 54 58 54 41 34 25 41 28 53 62 65 63 59 56 49 50 44 37 40 40 40 38 36 34 32 30 28 26 23 21 19 18 18 19 19 19 19 19 19 16 13 14 13 11 8 2 351 353 342 318 310 310 308 310 317 321 324 325 322 318 315 317 319 318
71 72 76 76 68 61 50 48 42 34 41 48 58 50 54 49 55 56 56 56 55 51 49 62 49 35 21 34 37 63 68 70 68 65 62 57 51 45 42 39 35 40 37 34 33 31 31 29 26 24 22 20 18 17 18 17 16 17 19 19 18 18 17 15 13 9 6 8 4 356 349 341 333 322 308 299 308 303 310 313 314 312 313 317 316
75 79 81 78 76 71 62 54 50 47 52 54 56 55 58 51 46 48 48 51 47 37 36 47 45 27 27 27 57 69 69 71 70 65 60 56 52 47 46 42 40 36 35 35 32 32 31 30 27 25 23 22 19 18 19 18 17 16 14 14 14 17 19 17 15 13 10 9 6 4 358 353 345 339 337 329 315 305 302 303 303 304 308 311 313
85 83 85 84 78 73 71 62 57 63 65 62 60 50 61 56 46 52 44 48 47 32 36 42 34 32 36 27 66 69 73 70 69 65 62 59 54 51 44 43 42 41 35 33 32 30 29 29 28 26 25 23 21 20 17 16 15 15 15 15 14 14 15 15 14 15 13 9 6 4 360 356 352 349 345 340 335 323 316 309 298 294 297 306 308
80 89 80 83 82 80 70 64 71 75 69 65 76 53 56 54 36 56 54 48 52 45 42 47 38 39 28 37 64 68 71 73 68 63 56 57 55 48 43 42 38 39 34 31 27 27 27 26 26 25 23 24 24 23 21 18 15 15 14 12 12 12 13 11 10 12 12 10 8 5 2 359 355 351 346 342 338 335 330 321 312 301 295 295 301
79 78 81 78 83 79 70 67 69 74 70 67 68 63 60 59 43 38 59 44 40 39 32 43 40 48 45 54 58 62 71 68 65 60 52 54 49 44 39 36 35 35 33 30 25 23 24 24 21 21 18 19 21 22 22 19 18 20 18 15 13 14 12 11 13 17 15 14 12 9 6 3 358 354 349 344 341 337 332 328 323 313 301 293 292
72 71 83 79 78 78 71 67 65 74 75 68 65 60 61 68 51 39 50 63 46 39 37 36 55 60 59 61 60 65 63 62 59 58 53 52 46 40 37 32 31 32 29 28 24 17 14 21 19 15 13 12 18 18 20 17 15 17 17 18 18 18 20 20 18 16 14 13 10 8 6 4 2 358 355 351 346 342 338 334 329 324 317 303 286
70 72 80 74 74 74 71 66 73 75 73 67 65 60 58 61 69 45 43 58 49 42 38 43 71 71 64 65 65 68 66 64 62 56 54 49 45 41 36 33 33 27 26 24 22 17 16 12 15 12 8 7 12 15 16 16 10 11 12 12 14 17 23 23 21 19 16 14 11 7 4 0 356 355 353 351 349 345 341 339 335 330 325 317 303
76 73 79 77 74 69 68 58 66 74 74 68 61 56 58 51 67 59 51 56 63 46 44 81 81 78 72 67 72 71 70 69 65 59 54 52 44 35 37 31 28 26 22 18 15 18 13 10 11 11 1 3 7 9 11 15 10 7 7 6 4 6 7 9 12 13 12 11 8 5 2 359 355 352 349 347 345 343 342 338 337 334 331 328 322
75 77 80 78 76 70 70 58 62 72 72 67 56 51 56 63 55 64 64 57 45 34 33 71 83 79 84 69 64 73 70 70 64 59 54 46 41 37 34 25 31 21 19 14 17 16 12 5 4 6 7 358 3 4 6 10 7 9 9 3 357 357 359 359 3 5 6 5 4 1 358 355 352 349 347 345 343 341 338 336 337 336 334 330 329
70 77 79 80 77 76 74 64 63 69 71 69 63 58 47 59 72 53 55 56 32 14 8 11 94 76 66 76 69 53 76 71 62 54 49 44 42 42 28 30 23 21 9 12 17 12 10 3 357 359 4 4 359 359 2 4 4 6 8 3 357 352 352 354 358 359 0 0 359 358 355 352 349 346 343 342 340 339 337 334 331 331 331 329 327
73 76 76 78 82 74 70 70 69 74 77 74 64 56 49 41 40 68 43 67 54 15 357 65 31 113 113 54 20 18 74 71 63 45 45 41 41 43 32 31 23 12 8 16 11 7 4 1 356 357 357 0 359 1 358 359 358 360 7 6 360 357 354 353 355 357 355 354 355 353 352 350 347 344 342 339 338 336 335 333 332 329 326 324 323
71 74 81 79 83 85 77 75 67 75 77 63 57 53 47 47 41 83 76 51 74 34 27 31 128 126 126 85 9 353 309 19 36 35 37 41 44 40 32 28 18 12 7 10 8 1 360 357 357 357 354 356 357 356 355 355 356 356 0 3 358 359 358 356 355 351 349 350 351 349 347 346 344 341 340 338 336 335 332 330 329 328 326 325 320
77 82 85 83 86 88 90 80 75 69 82 80 65 60 49 47 51 49 88 75 46 42 35 39 70 96 22 96 174 113 0 338 347 300 357 60 42 41 32 26 14 9 10 10 358 357 352 353 358 353 354 354 356 355 354 354 353 355 352 350 354 358 354 351 349 348 347 346 346 345 343 343 341 339 337 336 335 334 332 330 329 327 327 324 323
79 79 86 87 85 89 88 86 83 73 79 83 78 74 69 63 59 68 53 104 79 71 32 32 43 35 134 93 13 35 196 259 340 287 348 32 18 41 27 23 14 7 7 356 350 355 350 350 351 353 354 357 358 358 357 357 359 358 355 350 355 357 353 348 347 345 344 343 343 342 341 340 338 337 336 335 334 333 332 330 328 327 326 325 322
75 80 82 86 83 81 84 85 81 76 74 84 86 73 57 57 40 71 71 45 112 88 72 34 48 42 47 77 137 154 203 281 73 315 344 96 10 33 30 11 15 1 356 357 354 343 353 346 350 349 352 360 0 3 3 2 3 2 1 352 355 353 349 347 345 343 342 341 340 339 339 337 336 335 335 334 333 333 330 328 326 325 324 323 322
73 75 78 80 83 78 79 80 79 78 75 78 73 73 71 64 52 63 58 68 77 80 70 357 26 41 39 53 62 55 93 106 63 348 348 323 2 21 9 5 358 3 355 351 346 349 343 347 350 350 352 3 6 6 8 3 2 4 0 354 353 350 348 347 346 343 341 339 337 336 334 333 333 333 333 333 333 330 327 325 323 322 321 320 319
79 72 72 76 82 79 79 80 79 73 79 79 87 87 86 67 65 71 67 57 71 96 84 30 92 28 25 62 64 62 61 65 83 137 186 305 314 341 33 8 343 349 353 339 337 338 333 336 345 347 350 2 8 10 5 3 3 0 353 354 350 345 343 342 341 339 338 337 336 334 332 332 332 332 332 331 329 327 326 325 323 321 320 318 318
66 74 68 72 73 81 80 83 85 84 87 88 81 78 78 81 71 66 69 62 62 84 85 66 69 51 62 31 58 62 56 78 68 66 88 32 299 350 325 341 320 312 347 329 319 327 327 326 331 339 350 358 8 6 4 4 4 359 357 355 350 345 342 340 338 337 337 336 334 334 332 332 332 330 328 327 326 325 324 323 321 321 320 318 316
64 63 70 66 75 77 83 86 90 89 84 88 88 80 76 73 70 80 80 80 65 71 85 83 77 60 66 83 61 18 34 23 26 20 22 73 78 311 329 341 341 320 329 334 331 320 321 326 334 334 351 0 2 3 2 7 3 1 355 352 347 344 342 340 339 338 337 334 332 330 328 328 327 326 325 324 323 323 321 320 320 320 319 317 315
79 69 68 73 77 76 85 85 82 83 82 79 76 81 78 84 85 80 71 79 79 86 81 73 79 71 60 66 78 81 111 105 64 38 100 28 357 296 316 298 274 306 288 328 317 311 315 322 342 328 354 2 9 3 8 10 6 354 350 347 346 345 344 341 337 334 331 330 328 326 326 325 324 324 323 322 322 321 320 319 319 318 317 315 314
83 83 73 74 87 81 79 79 74 76 74 78 79 85 87 88 78 76 78 77 80 81 80 78 73 79 72 73 80 86 71 83 113 103 79 46 133 286 309 313 299 231 290 311 282 285 312 328 319 333 2 12 5 5 6 7 357 351 347 350 348 343 340 336 332 328 325 323 323 323 323 324 324 323 323 322 321 320 319 319 317 316 315 314 314
99 99 91 85 89 85 77 78 78 72 85 85 84 86 91 82 82 80 78 75 75 81 83 79 81 83 94 81 87 71 67 56 72 79 73 100 85 0 293 305 272 306 296 340 306 319 314 294 328 351 25 24 5 15 6 357 351 344 347 351 346 340 335 331 327 324 322 321 322 322 322 322 322 323 322 321 319 319 319 317 316 314 314 313 313
127 111 114 95 81 84 87 82 81 86 88 90 89 86 83 87 83 81 75 75 78 80 88 88 76 76 81 77 67 68 62 58 73 69 59 54 35 32 326 310 255 276 292 322 298 359 320 330 343 4 31 9 359 6 7 354 349 342 344 347 338 335 331 327 324 322 323 324 324 323 321 321 321 321 320 319 319 318 317 316 316 315 314 313 313
119 118 105 97 95 89 86 87 87 87 88 89 86 81 83 85 78 85 78 73 77 79 76 82 78 72 66 82 81 66 62 61 73 68 75 63 85 26 32 351 334 278 297 306 301 239 248 304 290 14 26 19 6 0 353 349 341 340 345 343 331 329 328 326 324 325 326 326 325 323 322 321 320 319 318 318 318 319 319 319 318 318 317 316 315
111 111 100 103 104 99 93 94 95 90 86 90 92 90 85 89 84 79 77 60 78 74 78 79 82 81 82 77 77 69 66 63 67 75 73 73 75 52 67 53 354 322 318 290 300 290 292 28 320 67 25 14 9 358 345 342 336 339 343 335 329 323 324 323 325 327 327 326 324 324 323 322 319 319 320 320 319 319 318 317 315 315 314 313 313
118 114 112 102 105 110 108 104 94 94 92 88 90 90 88 86 88 83 81 75 78 78 75 79 80 86 76 73 81 75 50 55 58 60 56 54 57 67 69 122 100 310 323 310 306 303 293 21 241 294 29 359 352 354 342 339 338 338 334 330 322 319 318 323 326 326 327 326 325 325 323 322 321 321 320 318 318 319 318 318 317 316 314 313 311
122 121 113 113 111 108 110 106 100 92 94 90 93 94 94 83 82 82 92 96 89 70 65 79 73 80 78 62 59 61 43 52 63 54 53 57 49 41 49 18 169 148 247 302 294 282 273 329 82 332 332 343 346 340 343 336 335 334 327 322 319 312 318 325 325 324 325 325 326 325 323 322 321 320 319 320 320 320 319 318 318 316 314 313 312
125 123 119 119 119 117 118 112 103 100 94 98 100 94 91 95 85 85 74 81 85 79 59 74 67 75 70 61 50 52 41 49 57 48 43 53 39 37 16 32 3 139 210 256 300 273 112 319 297 19 309 336 343 329 328 332 328 328 321 315 314 315 322 321 321 322 323 324 324 324 323 322 321 320 320 320 320 320 320 320 319 319 318 318 317
127 127 128 134 135 131 126 115 109 107 104 97 98 99 93 91 97 87 78 85 79 81 71 59 66 65 68 62 51 55 38 59 56 46 43 27 49 35 19 50 13 42 102 256 256 279 295 304 299 312 328 326 334 327 323 322 320 322 312 310 309 315 317 312 316 319 320 321 321 323 322 322 321 322 321 320 319 318 318 318 319 318 318 317 316
139 138 140 141 138 131 123 119 121 125 118 112 109 109 100 97 88 93 85 83 87 72 72 53 49 61 61 67 51 43 77 58 48 41 39 20 34 20 40 91 62 4 28 295 281 287 295 245 299 314 327 323 318 336 320 320 320 316 313 305 305 309 309 310 310 312 315 317 319 320 319 320 320 321 321 320 319 317 317 319 320 319 318 317 316
145 141 140 136 133 130 125 129 132 130 125 120 120 112 108 104 94 93 88 83 81 73 71 65 46 45 62 70 24 26 26 64 53 19 55 15 20 72 355 120 122 126 306 288 270 280 289 307 315 311 309 321 312 331 326 322 318 314 311 311 306 303 305 304 306 305 309 314 317 317 318 318 319 319 319 318 317 316 317 319 319 319 318 316 315
143 145 148 146 144 141 136 142 142 135 131 125 120 112 111 111 109 95 90 88 90 91 83 84 75 58 53 54 358 42 334 37 307 298 215 291 315 111 213 245 151 251 248 250 274 282 290 294 314 318 320 318 317 321 323 311 304 304 306 307 305 302 297 296 296 295 302 309 313 316 317 316 316 316 316 316 315 314 316 317 319 319 318 317 315
149 156 153 152 149 149 147 149 147 141 135 127 117 113 116 113 106 99 90 91 98 107 114 106 86 77 111 92 295 322 281 13 305 323 305 277 279 231 230 243 214 245 236 228 247 266 286 293 309 318 314 317 315 315 307 303 302 305 300 296 294 290 290 290 288 290 293 302 308 310 312 312 313 313 313 312 311 313 314 316 318 318 318 317 316
153 141 138 147 151 150 154 156 151 147 143 133 122 115 110 108 106 103 98 97 103 108 119 127 100 144 262 221 270 304 323 355 317 319 301 298 275 243 248 245 236 243 236 243 246 254 270 281 296 303 310 303 302 304 310 311 310 303 295 293 297 295 291 282 282 282 289 297 299 299 299 300 304 308 308 309 311 312 314 316 317 317 317 317 316
150 156 140 145 156 151 160 160 153 146 139 129 124 122 116 107 102 100 107 108 111 112 110 125 149 234 222 280 297 320 343 327 301 300 285 277 272 258 250 252 248 241 247 247 252 266 282 291 299 307 311 314 315 310 305 305 309 311 311 300 290 289 293 295 286 287 287 285 291 287 287 290 289 296 305 308 309 311 313 314 315 316 317 316 314
156 156 135 131 136 156 173 167 152 141 129 122 117 113 112 109 113 116 112 117 118 118 146 177 236 240 309 318 324 321 317 298 286 277 272 271 265 257 253 249 252 253 271 299 305 300 297 298 299 300 305 310 315 313 311 303 294 296 305 308 302 286 289 296 299 295 293 288 279 283 285 289 295 301 303 305 307 309 311 312 314 315 315 313 312
159 161 160 151 132 137 198 169 141 126 121 115 111 117 121 121 117 127 140 138 133 80 231 293 273 301 317 325 307 295 292 283 269 262 260 257 259 260 267 260 260 262 286 291 295 298 299 300 301 306 304 305 294 291 292 303 303 298 295 310 307 309 306 296 293 302 302 291 293 288 280 284 285 288 293 299 301 304 308 311 310 312 312 310 308
162 162 153 142 137 143 169 165 140 130 126 130 136 137 130 130 135 144 146 141 144 167 246 265 284 312 317 306 294 284 281 289 298 304 303 304 297 295 289 252 263 279 284 285 282 289 289 288 289 292 291 290 291 303 306 305 304 300 299 301 294 287 287 295 291 286 286 291 291 287 289 291 296 296 299 294 294 299 301 304 307 306 303 307 311
162 155 150 152 158 166 172 163 142 139 145 138 158 158 151 152 157 149 143 155 164 203 222 251 255 252 256 251 271 295 308 310 309 308 306 307 309 310 299 291 284 284 288 289 286 280 281 285 282 290 287 282 284 290 291 288 286 289 298 296 288 291 302 291 294 296 294 287 297 300 300 306 302 297 293 291 291 295 294 297 293 301 308 312 312
165 159 159 161 168 173 175 161 156 153 157 164 174 180 180 173 159 154 158 173 194 203 216 226 233 227 238 237 223 288 304 305 301 302 310 314 312 309 307 307 303 298 287 289 283 274 273 279 284 278 273 277 277 275 282 290 296 302 307 297 301 305 306 313 312 317 319 335 319 309 299 305 300 292 291 286 292 289 291 287 300 310 312 311 313
167 157 167 170 168 173 171 161 160 168 167 182 184 190 191 184 169 163 168 183 194 205 209 221 231 225 217 203 232 236 261 271 275 298 309 308 307 306 305 302 301 298 297 294 297 302 297 292 293 290 287 285 300 307 310 314 312 307 306 308 310 317 319 321 316 308 317 325 309 303 296 310 297 290 290 290 289 286 288 302 309 311 310 312 314
151 165 167 163 180 181 177 171 177 178 175 188 192 198 201 199 191 175 168 186 197 210 213 216 223 229 213 215 262 269 265 290 300 292 277 277 288 293 290 287 287 289 295 301 298 294 296 294 297 300 307 317 315 313 313 310 314 315 322 321 323 319 314 306 305 306 310 313 296 291 295 310 305 296 293 294 290 288 295 306 309 309 312 314 315
167 169 173 180 181 186 184 181 178 182 179 198 196 204 205 202 200 191 146 185 206 213 214 222 226 215 200 224 257 276 274 277 276 273 273 266 261 262 259 258 249 258 263 269 282 293 299 302 306 309 314 312 306 310 321 329 326 320 320 317 320 313 313 306 307 302 299 297 289 295 291 297 304 301 296 301 303 308 305 305 310 315 316 318 317
172 182 183 184 190 185 185 181 179 188 194 196 200 205 205 201 199 194 145 188 207 211 214 221 228 229 243 242 239 247 254 265 262 264 252 250 248 246 251 254 254 255 256 255 270 286 299 307 307 308 315 324 327 326 323 322 319 316 314 308 313 314 305 298 289 285 290 293 289 295 301 316 308 301 307 318 324 308 300 310 316 317 319 318 319
177 162 185 187 187 189 185 180 180 198 203 200 204 206 205 203 198 183 158 173 203 204 221 224 223 227 223 232 236 240 248 250 263 276 282 284 269 263 265 270 273 276 291 333 326 319 314 311 324 337 338 329 322 320 320 322 320 315 311 313 309 297 299 299 301 311 307 320 333 325 310 318 329 322 317 320 314 312 317 314 315 317 317 319 318
167 186 191 192 190 184 183 186 191 198 197 206 205 204 205 203 195 137 164 160 178 196 222 227 226 227 231 232 237 239 245 244 257 274 282 290 281 279 297 297 297 325 316 321 321 321 327 341 341 341 336 332 331 330 330 327 323 327 327 318 317 332 322 318 319 322 314 325 326 331 341 319 324 320 314 315 320 314 311 310 311 314 318 316 315
186 197 186 183 190 189 188 192 193 190 198 206 204 203 203 204 186 158 163 160 178 196 208 229 218 237 238 247 248 238 240 247 265 273 280 289 298 303 295 323 338 320 312 323 16 8 349 343 342 343 341 338 336 333 331 332 333 338 336 327 332 334 322 323 317 321 312 316 325 353 325 313 318 320 318 317 308 298 301 300 305 310 309 307 310
194 180 181 185 187 193 198 196 191 194 194 202 202 201 204 203 196 163 172 168 189 196 195 217 240 227 240 255 257 256 251 250 263 272 284 299 297 306 48 348 321 321 317 43 358 335 338 335 329 342 336 333 325 316 315 330 337 338 330 321 320 319 315 315 316 317 314 318 339 335 317 316 320 318 325 317 307 294 273 301 308 304 305 304 304